Regional Weather Roundup
Issued by NWS State College, PA

Home | Current Version | Previous Version | Graphics & Text | Print | Product List | Glossary Off
Versions: 1 2 3 4 5 6 7 8 9 10 11 12 13 14 15 16 17 18 19 20 21 22 23 24 25 26 27 28 29 30 31 32 33 34 35 36 37 38 39 40 41 42 43 44 45 46 47 48 49 50

000
ASUS41 KCTP 300203
RWRCTP

REGIONAL WEATHER ROUNDUP
NATIONAL WEATHER SERVICE STATE COLLEGE PA
1000 PM EDT WED MAR 29 2017

Note: "fair" indicates few or no clouds below 12,000 feet with no
significant weather and/or obstructions to visibility.

* = STATION THAT DOES NOT REPORT PRECIPITATION /E.G. RAIN...SNOW...ETC/
    THUNDER OR FOG.

PAZ002>004-007>009-013>016-020>023-029>032-300300-
WESTERN PENNSYLVANIA

CITY           SKY/WX    TMP DP  RH WIND       PRES   REMARKS
ERIE           MOCLDY    44  30  57 NE14      30.23F
MEADVILLE      PTCLDY    44  28  53 NE12      30.18F
FRANKLIN*      PTCLDY    45  27  49 NE10      30.21F
NEW CASTLE     FAIR      47  30  51 NE9       30.18F
BEAVER COUNTY  NOT AVBL
BUTLER*        CLEAR     48  30  49 NE9       30.16F
PITTSBURGH INT MOCLDY    52  30  43 NE8       30.14F
PITTSBURGH     CLEAR     50  29  44 N7        30.16S
INDIANA*       CLEAR     50  28  43 NE6       30.21S
LATROBE        CLEAR     46  34  61 CALM      30.18S
WASHINGTON CO* CLOUDY    46  32  57 CALM      30.17F
$$

PAZ004>006-010>012-017>019-024>028-033>037-041-042-045-046-049>053-300300-
CENTRAL PENNSYLVANIA

CITY           SKY/WX    TMP DP  RH WIND       PRES   REMARKS
BRADFORD       CLOUDY    40  26  57 NE5       30.21F
DUBOIS         CLEAR     44  27  51 NE9       30.18F
CLEARFIELD     CLEAR     47  27  45 NE8       30.20S
JOHNSTOWN      CLEAR     47  27  45 NE3       30.15F
ALTOONA        CLEAR     48  31  51 NE7       30.18S
STATE COLLEGE  NOT AVBL
WILLIAMSPORT   CLEAR     44  26  49 NW7       30.25R
SELINSGROVE    CLEAR     46  28  49 NE13      30.24R
FT INDIANTOWN  PTCLDY    47  26  44 NE6       30.22R
CAPITAL CITY   CLEAR     52  26  36 NE5       30.21R
HARRISBURG     PTCLDY    48  28  46 CALM      30.20R
YORK           CLEAR     48  30  49 N5        30.20R
$$

PAZ038>040-043-044-047-048-054-055-060>062-067>071-300300-
EASTERN PENNSYLVANIA

CITY           SKY/WX    TMP DP  RH WIND       PRES   REMARKS
SCRANTON       CLEAR     40  25  55 N12G22    30.24R
MOUNT POCONO   CLEAR     34  23  64 N10       30.18R
ALLENTOWN      CLEAR     44  25  47 N9        30.23R
QUAKERTOWN*    CLEAR     45  27  49 N5        30.23R
READING        CLEAR     47  27  45 N9        30.22R
LANCASTER      CLEAR     47  28  47 NE7       30.21R
COATESVILLE    CLEAR     48  27  43 N7        30.23R
POTTSTOWN      CLEAR     46  25  43 N9        30.23R
BLUE BELL      CLEAR     46  28  49 NW5       30.21R
DOYLESTOWN     CLEAR     45  26  47 N8        30.20R
WILLOW GROVE   NOT AVBL
NORTH PHILA    CLEAR     49  27  42 N7        30.22R
PHILADELPHIA   CLEAR     51  26  37 N14       30.22R
$$




USA.gov is the U.S. government's official web portal to all federal, state and local government web resources and services.